Lid_Strength_Index
8 8 8 10 9 8 8 9 11 9 9 7 7 6 5 4 4 4 4 4 4 4 3 2 2 2 2 2 1 1 2 2 1 1 0 1 1 1 1 1 2 2 2 2
10 7 8 10 8 8 9 9 9 8 8 6 5 4 5 4 4 5 5 4 4 3 3 3 2 3 3 2 1 1 2 2 1 1 2 1 1 1 1 2 2 2 2 2
12 8 9 13 9 8 8 8 9 10 7 5 6 5 5 4 4 4 4 4 4 3 3 3 2 2 2 1 1 1 2 2 2 2 3 2 1 1 1 0 2 1 2 2
12 10 16 8 6 7 8 9 7 6 6 5 5 5 4 4 4 4 4 4 3 3 3 2 2 2 1 1 1 2 2 2 2 2 3 3 1 1 1 0 1 1 2 2
14 13 10 9 8 9 8 8 6 6 5 5 5 5 5 3 3 3 3 3 3 2 2 2 2 1 1 1 1 2 2 2 3 3 3 3 3 2 0 0 0 1 2 2
12 15 16 9 7 5 5 11 5 5 5 6 6 8 7 4 3 3 3 2 3 2 2 2 1 1 1 2 2 2 2 3 3 3 2 2 2 1 1 0 1 2 2 1
13 14 10 7 8 7 12 10 5 4 5 6 7 6 5 3 4 3 3 3 2 2 2 2 1 1 2 2 2 1 1 3 2 2 1 1 1 0 1 1 0 1 1 1
12 14 16 6 7 12 7 5 5 4 5 6 5 5 4 4 4 3 3 3 2 2 3 2 1 1 2 2 1 1 2 2 2 1 2 2 0 1 0 1 1 1 1 2
11 11 6 5 6 5 4 5 4 5 5 5 5 5 4 4 4 3 3 3 2 2 2 2 1 1 3 2 1 1 2 2 1 1 1 -0 0 1 1 1 2 2 2 3
11 9 8 5 5 5 4 4 4 4 4 4 5 4 4 4 4 3 3 3 2 2 3 3 3 3 2 2 1 1 2 1 1 1 1 -0 2 2 1 1 2 3 3 3
11 9 8 6 5 4 4 4 4 3 4 4 4 4 4 4 4 3 3 2 2 2 2 4 3 3 2 1 1 2 1 1 1 1 2 1 1 1 1 0 1 2 3 3
12 8 8 8 6 5 4 4 4 4 4 3 3 4 3 4 3 3 3 2 2 2 2 3 3 2 1 1 1 1 1 2 2 2 1 2 1 1 4 5 6 7 7 5
8 6 5 6 5 4 4 4 3 3 3 4 3 3 3 3 3 3 2 2 2 2 2 2 2 2 1 1 1 1 1 1 1 3 2 2 1 1 2 2 7 8 9 9
4 4 6 5 6 5 4 3 3 3 3 3 3 3 3 3 3 3 3 2 2 2 2 2 2 2 1 1 1 1 1 5 2 3 2 1 1 1 1 2 2 2 7 7
5 4 4 5 5 5 3 3 4 4 3 3 3 3 3 3 3 3 2 1 1 2 2 2 2 2 1 1 1 1 2 2 1 2 1 1 1 1 2 1 2 3 4 6
5 5 4 4 5 5 4 4 4 4 4 3 3 3 2 2 2 2 2 1 2 3 2 2 2 1 1 1 0 1 1 4 5 2 2 1 1 2 2 2 3 3 3 4
7 7 5 5 4 4 4 3 3 4 3 3 3 3 2 2 2 2 2 1 1 1 1 1 1 0 1 0 0 1 1 1 4 3 1 1 1 2 2 3 4 4 4 5
5 4 3 4 4 4 4 3 3 3 3 3 3 2 3 3 3 2 2 1 1 1 1 0 0 0 1 1 0 1 2 2 2 1 1 1 1 1 3 4 5 5 5 5
4 3 3 3 3 3 3 3 3 3 2 2 3 3 3 2 2 2 2 2 2 2 1 0 4 2 0 1 2 1 1 2 2 1 1 3 2 3 4 5 5 5 5 5
3 2 3 3 3 3 4 3 3 3 2 2 2 3 3 2 2 2 2 2 1 1 0 1 0 1 1 2 4 2 2 2 2 2 2 3 4 4 5 6 6 6 5 4
3 3 3 3 3 3 3 3 3 3 3 2 3 3 3 2 2 2 2 3 1 1 0 4 1 2 1 2 4 4 2 2 2 2 3 4 5 5 5 5 6 6 5 4
2 3 3 2 3 4 3 3 3 2 2 2 2 2 2 2 2 2 1 2 1 5 2 2 2 7 3 5 3 2 2 2 2 3 4 5 5 5 6 6 6 6 5 4
2 2 2 2 3 3 2 2 2 2 2 2 2 2 2 2 2 2 3 1 1 4 2 1 8 10 8 2 2 2 2 3 4 5 5 4 5 6 6 7 6 5 5 4
2 2 2 2 2 3 3 3 2 2 2 2 1 1 2 2 2 1 1 4 7 5 3 5 7 11 9 2 2 2 3 4 5 5 5 8 6 6 6 6 5 4 4 4
3 2 2 2 3 4 3 2 2 2 2 2 1 1 1 0 1 1 1 2 8 4 2 11 11 10 3 1 3 4 4 4 4 5 6 6 6 6 6 5 4 4 3 3
2 3 2 2 3 3 3 2 3 2 2 2 2 1 1 1 1 1 1 3 2 5 3 3 3 2 2 2 4 4 4 5 5 6 6 6 6 5 5 4 3 3 3 4
2 6 3 2 2 3 2 2 3 2 2 2 2 1 1 1 1 1 4 2 2 2 3 2 2 3 2 3 4 5 5 6 8 6 6 5 5 5 4 4 3 3 4 4